| time (UTC) | temp C | wind direction | speed KPH | gust KPH | rain 1hr cm | rain 24hr cm | rain mn cm | humidity % | barometer mb |
| 20260510180535 | 33 | 171 | 11.3 | 25.7 | 0.00 | 0.00 | 0.00 | 49 | 1011.1 |
| 20260510180051 | 33 | 115 | 12.9 | 25.7 | 0.00 | 0.00 | 0.00 | 51 | 1011.0 |
| 20260510175535 | 32 | 144 | 6.4 | 20.9 | 0.00 | 0.00 | 0.00 | 52 | 1011.2 |
| 20260510175034 | 32 | 217 | 9.7 | 22.5 | 0.00 | 0.00 | 0.00 | 53 | 1011.3 |
| 20260510174555 | 32 | 150 | 11.3 | 22.5 | 0.00 | 0.00 | 0.00 | 53 | 1011.3 |
| 20260510174037 | 32 | 166 | 9.7 | 20.9 | 0.00 | 0.00 | 0.00 | 55 | 1011.3 |
| 20260510173535 | 32 | 136 | 12.9 | 25.7 | 0.00 | 0.00 | 0.00 | 55 | 1011.3 |
| 20260510173048 | 32 | 168 | 14.5 | 25.7 | 0.00 | 0.00 | 0.00 | 54 | 1011.4 |
| 20260510172535 | 31 | 144 | 11.3 | 22.5 | 0.00 | 0.00 | 0.00 | 56 | 1011.4 |
| 20260510172035 | 31 | 161 | 14.5 | 24.1 | 0.00 | 0.00 | 0.00 | 55 | 1011.5 |
| 20260510171554 | 31 | 150 | 14.5 | 24.1 | 0.00 | 0.00 | 0.00 | 57 | 1011.5 |
| 20260510171034 | 31 | 127 | 14.5 | 24.1 | 0.00 | 0.00 | 0.00 | 58 | 1011.5 |
| 20260510170536 | 31 | 150 | 16.1 | 24.1 | 0.00 | 0.00 | 0.00 | 59 | 1011.6 |
| 20260510170054 | 31 | 163 | 11.3 | 24.1 | 0.00 | 0.00 | 0.00 | 61 | 1011.7 |
| 20260510165536 | 31 | 152 | 14.5 | 24.1 | 0.00 | 0.00 | 0.00 | 60 | 1011.6 |
| 20260510165035 | 31 | 123 | 11.3 | 22.5 | 0.00 | 0.00 | 0.00 | 61 | 1011.6 |
| 20260510164547 | 30 | 186 | 9.7 | 24.1 | 0.00 | 0.00 | 0.00 | 64 | 1011.6 |
| 20260510164034 | 30 | 142 | 11.3 | 24.1 | 0.00 | 0.00 | 0.00 | 63 | 1011.6 |
| 20260510163538 | 30 | 182 | 12.9 | 24.1 | 0.00 | 0.00 | 0.00 | 65 | 1011.6 |
| 20260510163046 | 30 | 171 | 12.9 | 25.7 | 0.00 | 0.00 | 0.00 | 66 | 1011.5 |
| 20260510162536 | 30 | 190 | 11.3 | 25.7 | 0.00 | 0.00 | 0.00 | 66 | 1011.5 |
| 20260510162035 | 29 | 161 | 9.7 | 22.5 | 0.00 | 0.00 | 0.00 | 67 | 1011.6 |
| 20260510161542 | 29 | 171 | 11.3 | 20.9 | 0.00 | 0.00 | 0.00 | 67 | 1011.6 |
| 20260510161037 | 29 | 153 | 9.7 | 20.9 | 0.00 | 0.00 | 0.00 | 69 | 1011.5 |
| 20260510160535 | 28 | 109 | 12.9 | 20.9 | 0.00 | 0.00 | 0.00 | 69 | 1011.5 |
| 20260510160051 | 28 | 115 | 11.3 | 20.9 | 0.00 | 0.00 | 0.00 | 70 | 1011.5 |
| 20260510155534 | 28 | 159 | 14.5 | 20.9 | 0.00 | 0.00 | 0.00 | 70 | 1011.5 |
| 20260510155035 | 28 | 143 | 9.7 | 24.1 | 0.00 | 0.00 | 0.00 | 71 | 1011.4 |
| 20260510154545 | 28 | 130 | 14.5 | 24.1 | 0.00 | 0.00 | 0.00 | 71 | 1011.4 |
| 20260510154035 | 28 | 157 | 11.3 | 22.5 | 0.00 | 0.00 | 0.00 | 71 | 1011.4 |
| 20260510153534 | 28 | 153 | 11.3 | 19.3 | 0.00 | 0.00 | 0.00 | 72 | 1011.4 |
| 20260510153045 | 27 | 151 | 11.3 | 22.5 | 0.00 | 0.00 | 0.00 | 73 | 1011.4 |
| 20260510152535 | 27 | 165 | 12.9 | 22.5 | 0.00 | 0.00 | 0.00 | 72 | 1011.5 |
| 20260510152034 | 27 | 178 | 12.9 | 19.3 | 0.00 | 0.00 | 0.00 | 73 | 1011.4 |
| 20260510151544 | 27 | 105 | 11.3 | 20.9 | 0.00 | 0.00 | 0.00 | 74 | 1011.3 |
| 20260510151034 | 27 | 140 | 12.9 | 20.9 | 0.00 | 0.00 | 0.00 | 74 | 1011.3 |
| 20260510150534 | 27 | 144 | 11.3 | 20.9 | 0.00 | 0.00 | 0.00 | 74 | 1011.1 |
| 20260510150051 | 27 | 175 | 9.7 | 17.7 | 0.00 | 0.00 | 0.00 | 74 | 1011.2 |
| 20260510145538 | 27 | 148 | 6.4 | 17.7 | 0.00 | 0.00 | 0.00 | 76 | 1011.2 |
| 20260510145035 | 26 | 164 | 9.7 | 19.3 | 0.00 | 0.00 | 0.00 | 76 | 1011.4 |
| 20260510144557 | 26 | 132 | 9.7 | 19.3 | 0.00 | 0.00 | 0.00 | 76 | 1011.4 |
| 20260510144036 | 26 | 137 | 9.7 | 19.3 | 0.00 | 0.00 | 0.00 | 76 | 1011.4 |
| 20260510143535 | 26 | 159 | 8.0 | 17.7 | 0.00 | 0.00 | 0.00 | 77 | 1011.5 |
| 20260510143104 | 26 | 123 | 6.4 | 22.5 | 0.00 | 0.00 | 0.00 | 78 | 1011.5 |
| 20260510142535 | 25 | 151 | 11.3 | 22.5 | 0.00 | 0.00 | 0.00 | 78 | 1011.6 |
| 20260510142035 | 25 | 159 | 11.3 | 19.3 | 0.00 | 0.00 | 0.00 | 78 | 1011.6 |
| 20260510141550 | 25 | 139 | 12.9 | 19.3 | 0.00 | 0.00 | 0.00 | 78 | 1011.5 |
| 20260510141035 | 25 | 119 | 9.7 | 19.3 | 0.00 | 0.00 | 0.00 | 79 | 1011.5 |
| 20260510140534 | 25 | 138 | 9.7 | 19.3 | 0.00 | 0.00 | 0.00 | 79 | 1011.5 |
| 20260510140048 | 24 | 169 | 9.7 | 19.3 | 0.00 | 0.00 | 0.00 | 80 | 1011.6 |
| 20260510135536 | 24 | 121 | 9.7 | 19.3 | 0.00 | 0.00 | 0.00 | 81 | 1011.6 |
| 20260510135035 | 23 | 128 | 9.7 | 17.7 | 0.00 | 0.00 | 0.00 | 81 | 1011.5 |
| 20260510134604 | 23 | 132 | 8.0 | 20.9 | 0.00 | 0.00 | 0.00 | 81 | 1011.6 |
| 20260510134036 | 23 | 114 | 9.7 | 20.9 | 0.00 | 0.00 | 0.00 | 81 | 1011.5 |
| 20260510133534 | 23 | 121 | 11.3 | 20.9 | 0.00 | 0.00 | 0.00 | 82 | 1011.5 |
| 20260510133050 | 23 | 123 | 9.7 | 14.5 | 0.00 | 0.00 | 0.00 | 82 | 1011.4 |
| 20260510132535 | 23 | 92 | 8.0 | 14.5 | 0.00 | 0.00 | 0.00 | 83 | 1011.4 |
| 20260510132035 | 22 | 115 | 4.8 | 14.5 | 0.00 | 0.00 | 0.00 | 83 | 1011.4 |
| 20260510131545 | 22 | 122 | 6.4 | 16.1 | 0.00 | 0.00 | 0.00 | 84 | 1011.3 |
| 20260510131039 | 22 | 113 | 9.7 | 16.1 | 0.00 | 0.00 | 0.00 | 84 | 1011.2 |
| 20260510130535 | 22 | 135 | 8.0 | 14.5 | 0.00 | 0.00 | 0.00 | 84 | 1011.1 |
| 20260510130047 | 22 | 117 | 6.4 | 16.1 | 0.00 | 0.00 | 0.00 | 84 | 1011.1 |
| 20260510125534 | 21 | 112 | 6.4 | 16.1 | 0.00 | 0.00 | 0.00 | 85 | 1011.1 |
| 20260510125035 | 21 | 133 | 8.0 | 16.1 | 0.00 | 0.00 | 0.00 | 85 | 1011.1 |
| 20260510124553 | 21 | 135 | 6.4 | 14.5 | 0.00 | 0.00 | 0.00 | 85 | 1011.1 |
| 20260510124035 | 21 | 117 | 4.8 | 12.9 | 0.00 | 0.00 | 0.00 | 84 | 1011.1 |
| 20260510123535 | 21 | 111 | 4.8 | 11.3 | 0.00 | 0.00 | 0.00 | 84 | 1011.1 |
| 20260510123045 | 21 | 115 | 4.8 | 11.3 | 0.00 | 0.00 | 0.00 | 84 | 1011.0 |
| 20260510122538 | 21 | 88 | 6.4 | 11.3 | 0.00 | 0.00 | 0.00 | 84 | 1011.1 |
| 20260510122034 | 21 | 100 | 4.8 | 9.7 | 0.00 | 0.00 | 0.00 | 83 | 1011.1 |
| 20260510121549 | 21 | 115 | 1.6 | 9.7 | 0.00 | 0.00 | 0.00 | 83 | 1011.0 |
| 20260510121034 | 21 | 63 | 4.8 | 9.7 | 0.00 | 0.00 | 0.00 | 83 | 1011.0 |
| 20260510120537 | 21 | 117 | 4.8 | 9.7 | 0.00 | 0.00 | 0.00 | 83 | 1010.9 |
| 20260510120047 | 21 | 101 | 4.8 | 9.7 | 0.00 | 0.00 | 0.00 | 83 | 1010.8 |
| 20260510115535 | 21 | 117 | 3.2 | 9.7 | 0.00 | 0.00 | 0.00 | 83 | 1010.8 |
| 20260510115035 | 21 | 117 | 3.2 | 11.3 | 0.00 | 0.00 | 0.00 | 82 | 1010.7 |
| 20260510114547 | 21 | 103 | 4.8 | 11.3 | 0.00 | 0.00 | 0.00 | 82 | 1010.7 |
| 20260510114035 | 21 | 105 | 4.8 | 11.3 | 0.00 | 0.00 | 0.00 | 81 | 1010.8 |
| 20260510113535 | 21 | 96 | 4.8 | 12.9 | 0.00 | 0.00 | 0.00 | 81 | 1010.8 |
| 20260510113049 | 21 | 92 | 4.8 | 12.9 | 0.00 | 0.00 | 0.00 | 80 | 1010.8 |
| 20260510112534 | 21 | 86 | 4.8 | 9.7 | 0.00 | 0.00 | 0.00 | 80 | 1010.9 |
| 20260510112038 | 21 | 92 | 1.6 | 6.4 | 0.00 | 0.00 | 0.00 | 79 | 1010.7 |
| 20260510111558 | 22 | 92 | 3.2 | 9.7 | 0.00 | 0.00 | 0.00 | 79 | 1010.7 |
| 20260510111034 | 22 | 92 | 3.2 | 9.7 | 0.00 | 0.00 | 0.00 | 78 | 1010.6 |
| 20260510110534 | 22 | 105 | 3.2 | 11.3 | 0.00 | 0.00 | 0.00 | 78 | 1010.6 |
| 20260510110047 | 22 | 94 | 4.8 | 11.3 | 0.00 | 0.00 | 0.00 | 78 | 1010.5 |
| 20260510105534 | 22 | 98 | 4.8 | 11.3 | 0.00 | 0.00 | 0.00 | 78 | 1010.5 |
| 20260510105036 | 22 | 136 | 4.8 | 11.3 | 0.00 | 0.00 | 0.00 | 78 | 1010.4 |
| 20260510104605 | 22 | 153 | 4.8 | 11.3 | 0.00 | 0.00 | 0.00 | 77 | 1010.3 |
| 20260510104037 | 22 | 121 | 4.8 | 12.9 | 0.00 | 0.00 | 0.00 | 77 | 1010.3 |
| 20260510103534 | 22 | 136 | 4.8 | 12.9 | 0.00 | 0.00 | 0.00 | 77 | 1010.3 |
| 20260510103052 | 22 | 113 | 6.4 | 12.9 | 0.00 | 0.00 | 0.00 | 77 | 1010.3 |
| 20260510102533 | 22 | 121 | 4.8 | 12.9 | 0.00 | 0.00 | 0.00 | 76 | 1010.2 |
| 20260510102034 | 22 | 150 | 4.8 | 12.9 | 0.00 | 0.00 | 0.00 | 75 | 1010.3 |
| 20260510101549 | 22 | 133 | 4.8 | 12.9 | 0.00 | 0.00 | 0.00 | 75 | 1010.3 |
| 20260510101033 | 22 | 135 | 4.8 | 11.3 | 0.00 | 0.00 | 0.00 | 75 | 1010.2 |
| 20260510100539 | 22 | 130 | 4.8 | 14.5 | 0.00 | 0.00 | 0.00 | 74 | 1010.2 |
| 20260510100046 | 22 | 107 | 3.2 | 16.1 | 0.00 | 0.00 | 0.00 | 74 | 1010.2 |
| 20260510095535 | 22 | 115 | 8.0 | 16.1 | 0.00 | 0.00 | 0.00 | 74 | 1010.1 |
| 20260510095035 | 23 | 144 | 8.0 | 17.7 | 0.00 | 0.00 | 0.00 | 73 | 1010.0 |
| 20260510094546 | 23 | 144 | 8.0 | 17.7 | 0.00 | 0.00 | 0.00 | 73 | 1010.0 |
| 20260510094034 | 23 | 153 | 6.4 | 17.7 | 0.00 | 0.00 | 0.00 | 73 | 1010.0 |
| 20260510093533 | 23 | 123 | 9.7 | 17.7 | 0.00 | 0.00 | 0.00 | 73 | 1010.1 |
| 20260510093045 | 23 | 135 | 8.0 | 17.7 | 0.00 | 0.00 | 0.00 | 73 | 1009.9 |
| 20260510092535 | 23 | 126 | 8.0 | 16.1 | 0.00 | 0.00 | 0.00 | 73 | 1009.8 |
| 20260510092039 | 23 | 102 | 8.0 | 16.1 | 0.00 | 0.00 | 0.00 | 73 | 1009.8 |
| 20260510091543 | 23 | 132 | 8.0 | 14.5 | 0.00 | 0.00 | 0.00 | 73 | 1009.8 |
| 20260510091034 | 23 | 146 | 8.0 | 14.5 | 0.00 | 0.00 | 0.00 | 73 | 1009.7 |
| 20260510090533 | 23 | 159 | 8.0 | 16.1 | 0.00 | 0.00 | 0.00 | 72 | 1009.6 |
| 20260510090048 | 23 | 113 | 8.0 | 16.1 | 0.00 | 0.00 | 0.00 | 72 | 1009.6 |
| 20260510085538 | 23 | 157 | 4.8 | 14.5 | 0.00 | 0.00 | 0.00 | 72 | 1009.7 |
| 20260510085034 | 23 | 159 | 6.4 | 14.5 | 0.00 | 0.00 | 0.00 | 72 | 1009.7 |
| 20260510084550 | 23 | 99 | 6.4 | 16.1 | 0.00 | 0.00 | 0.00 | 71 | 1009.7 |
| 20260510084034 | 23 | 123 | 8.0 | 16.1 | 0.00 | 0.00 | 0.00 | 71 | 1009.7 |
| 20260510083534 | 23 | 122 | 6.4 | 14.5 | 0.00 | 0.00 | 0.00 | 70 | 1009.7 |
| 20260510083046 | 23 | 123 | 6.4 | 16.1 | 0.00 | 0.00 | 0.00 | 70 | 1009.6 |
| 20260510082534 | 23 | 138 | 8.0 | 16.1 | 0.00 | 0.00 | 0.00 | 70 | 1009.6 |
| 20260510082035 | 23 | 145 | 8.0 | 14.5 | 0.00 | 0.00 | 0.00 | 70 | 1009.7 |
| 20260510081557 | 23 | 131 | 6.4 | 14.5 | 0.00 | 0.00 | 0.00 | 70 | 1009.7 |
| 20260510081035 | 23 | 148 | 6.4 | 12.9 | 0.00 | 0.00 | 0.00 | 70 | 1009.8 |
| 20260510080534 | 23 | 98 | 6.4 | 12.9 | 0.00 | 0.00 | 0.00 | 69 | 1009.7 |
| 20260510080047 | 23 | 127 | 6.4 | 11.3 | 0.00 | 0.00 | 0.00 | 69 | 1009.8 |
| 20260510075534 | 23 | 123 | 4.8 | 14.5 | 0.00 | 0.00 | 0.00 | 69 | 1009.8 |
| 20260510075036 | 23 | 124 | 6.4 | 14.5 | 0.00 | 0.00 | 0.00 | 69 | 1009.8 |
| 20260510074554 | 23 | 122 | 4.8 | 11.3 | 0.00 | 0.00 | 0.00 | 68 | 1009.8 |
| 20260510074035 | 23 | 128 | 3.2 | 11.3 | 0.00 | 0.00 | 0.00 | 68 | 1009.8 |
| 20260510073535 | 24 | 126 | 4.8 | 12.9 | 0.00 | 0.00 | 0.00 | 67 | 1009.9 |
| 20260510073052 | 24 | 126 | 6.4 | 14.5 | 0.00 | 0.00 | 0.00 | 67 | 1009.9 |
| 20260510072533 | 24 | 140 | 4.8 | 14.5 | 0.00 | 0.00 | 0.00 | 67 | 1009.9 |
| 20260510072035 | 24 | 142 | 6.4 | 12.9 | 0.00 | 0.00 | 0.00 | 67 | 1009.9 |
| 20260510071549 | 24 | 138 | 6.4 | 12.9 | 0.00 | 0.00 | 0.00 | 66 | 1009.9 |
| 20260510071037 | 24 | 138 | 6.4 | 11.3 | 0.00 | 0.00 | 0.00 | 66 | 1009.9 |
| 20260510070535 | 24 | 130 | 6.4 | 11.3 | 0.00 | 0.00 | 0.00 | 65 | 1009.9 |
| 20260510070048 | 25 | 139 | 4.8 | 12.9 | 0.00 | 0.00 | 0.00 | 65 | 1009.9 |
| 20260510065535 | 25 | 147 | 4.8 | 12.9 | 0.00 | 0.00 | 0.00 | 64 | 1009.9 |
| 20260510065035 | 25 | 128 | 6.4 | 12.9 | 0.00 | 0.00 | 0.00 | 64 | 1010.0 |
| 20260510064546 | 25 | 143 | 6.4 | 12.9 | 0.00 | 0.00 | 0.00 | 64 | 1010.0 |
| 20260510064038 | 25 | 161 | 6.4 | 16.1 | 0.00 | 0.00 | 0.00 | 64 | 1009.9 |
| 20260510063536 | 25 | 130 | 8.0 | 16.1 | 0.00 | 0.00 | 0.00 | 63 | 1009.9 |
| 20260510063051 | 25 | 142 | 8.0 | 16.1 | 0.00 | 0.00 | 0.00 | 63 | 1010.0 |
| 20260510062537 | 25 | 147 | 9.7 | 16.1 | 0.00 | 0.00 | 0.00 | 63 | 1009.9 |
| 20260510062037 | 25 | 121 | 4.8 | 16.1 | 0.00 | 0.00 | 0.00 | 63 | 1009.9 |
| 20260510061545 | 25 | 133 | 6.4 | 16.1 | 0.00 | 0.00 | 0.00 | 63 | 1009.9 |
| 20260510061042 | 25 | 112 | 8.0 | 16.1 | 0.00 | 0.00 | 0.00 | 64 | 1009.9 |
| 20260510060539 | 25 | 124 | 8.0 | 14.5 | 0.00 | 0.00 | 0.00 | 64 | 1009.9 |
| 20260510060054 | 25 | 138 | 6.4 | 14.5 | 0.00 | 0.00 | 0.00 | 64 | 1009.9 |
| 20260510055537 | 25 | 115 | 6.4 | 12.9 | 0.00 | 0.00 | 0.00 | 64 | 1009.9 |
| 20260510055037 | 25 | 111 | 6.4 | 12.9 | 0.00 | 0.00 | 0.00 | 64 | 1009.9 |
| 20260510054549 | 25 | 144 | 6.4 | 14.5 | 0.00 | 0.00 | 0.00 | 64 | 1009.9 |
| 20260510054036 | 25 | 129 | 6.4 | 14.5 | 0.00 | 0.00 | 0.00 | 64 | 1009.8 |
| 20260510053539 | 25 | 111 | 8.0 | 14.5 | 0.00 | 0.00 | 0.00 | 64 | 1009.8 |
| 20260510053045 | 26 | 118 | 4.8 | 11.3 | 0.00 | 0.00 | 0.00 | 63 | 1009.7 |
| 20260510052535 | 26 | 126 | 4.8 | 11.3 | 0.00 | 0.00 | 0.00 | 63 | 1009.8 |
| 20260510052035 | 26 | 129 | 4.8 | 9.7 | 0.00 | 0.00 | 0.00 | 62 | 1009.8 |
| 20260510051613 | 26 | 116 | 3.2 | 6.4 | 0.00 | 0.00 | 0.00 | 62 | 1009.9 |
| 20260510051040 | 26 | 116 | 4.8 | 8.0 | 0.00 | 0.00 | 0.00 | 61 | 1009.9 |
| 20260510050536 | 26 | 110 | 3.2 | 11.3 | 0.00 | 0.00 | 0.00 | 61 | 1009.8 |
| 20260510050048 | 26 | 105 | 4.8 | 11.3 | 0.00 | 0.00 | 0.00 | 60 | 1009.8 |
| 20260510045535 | 26 | 108 | 4.8 | 12.9 | 0.00 | 0.00 | 0.00 | 60 | 1009.8 |
| 20260510045035 | 26 | 105 | 6.4 | 12.9 | 0.00 | 0.00 | 0.00 | 60 | 1009.9 |
| 20260510044555 | 27 | 111 | 4.8 | 14.5 | 0.00 | 0.00 | 0.00 | 59 | 1009.8 |
| 20260510044039 | 27 | 111 | 8.0 | 14.5 | 0.00 | 0.00 | 0.00 | 59 | 1009.8 |
| 20260510043534 | 27 | 117 | 8.0 | 14.5 | 0.00 | 0.00 | 0.00 | 59 | 1009.8 |
| 20260510043127 | 26 | 113 | 8.0 | 16.1 | 0.00 | 0.00 | 0.00 | 60 | 1009.7 |
| 20260510042534 | 26 | 132 | 6.4 | 16.1 | 0.00 | 0.00 | 0.00 | 61 | 1009.7 |
| 20260510042037 | 26 | 133 | 6.4 | 14.5 | 0.00 | 0.00 | 0.00 | 63 | 1009.7 |
| 20260510041551 | 26 | 105 | 9.7 | 16.1 | 0.00 | 0.00 | 0.00 | 65 | 1009.7 |
| 20260510041034 | 25 | 113 | 6.4 | 16.1 | 0.00 | 0.00 | 0.00 | 67 | 1009.6 |
| 20260510040537 | 25 | 111 | 4.8 | 11.3 | 0.00 | 0.00 | 0.00 | 70 | 1009.6 |
| 20260510040134 | 25 | 96 | 3.2 | 8.0 | 0.00 | 0.00 | 0.00 | 72 | 1009.5 |
| 20260510035534 | 25 | 80 | 3.2 | 8.0 | 0.00 | 0.00 | 0.00 | 72 | 1009.5 |
| 20260510035041 | 25 | 86 | 4.8 | 8.0 | 0.00 | 0.00 | 0.00 | 72 | 1009.5 |
| 20260510034553 | 26 | 102 | 1.6 | 4.8 | 0.00 | 0.00 | 0.00 | 71 | 1009.4 |
| 20260510034035 | 26 | 102 | 1.6 | 4.8 | 0.00 | 0.00 | 0.00 | 71 | 1009.3 |
| 20260510033541 | 26 | 102 | 1.6 | 4.8 | 0.00 | 0.00 | 0.00 | 71 | 1009.2 |
| 20260510033050 | 26 | 102 | 1.6 | 4.8 | 0.00 | 0.00 | 0.00 | 70 | 1009.1 |
| 20260510032535 | 26 | 102 | 3.2 | 4.8 | 0.00 | 0.00 | 0.00 | 70 | 1009.0 |
| 20260510032035 | 26 | 102 | 1.6 | 6.4 | 0.00 | 0.00 | 0.00 | 69 | 1009.0 |
| 20260510031613 | 26 | 102 | 1.6 | 6.4 | 0.00 | 0.00 | 0.00 | 69 | 1008.8 |
| 20260510031034 | 26 | 102 | 1.6 | 4.8 | 0.00 | 0.00 | 0.00 | 68 | 1008.8 |
| 20260510030537 | 26 | 76 | 3.2 | 4.8 | 0.00 | 0.00 | 0.00 | 67 | 1008.7 |
| 20260510030051 | 27 | 76 | 1.6 | 4.8 | 0.00 | 0.00 | 0.00 | 66 | 1008.6 |
| 20260510025536 | 27 | 76 | 3.2 | 4.8 | 0.00 | 0.00 | 0.00 | 65 | 1008.6 |
| 20260510025036 | 27 | 76 | 1.6 | 4.8 | 0.00 | 0.00 | 0.00 | 65 | 1008.5 |
| 20260510024550 | 27 | 76 | 1.6 | 6.4 | 0.00 | 0.00 | 0.00 | 64 | 1008.4 |
| 20260510024036 | 27 | 76 | 3.2 | 6.4 | 0.00 | 0.00 | 0.00 | 63 | 1008.5 |
| 20260510023536 | 28 | 72 | 1.6 | 4.8 | 0.00 | 0.00 | 0.00 | 62 | 1008.4 |
| 20260510023053 | 28 | 84 | 0.0 | 3.2 | 0.00 | 0.00 | 0.00 | 60 | 1008.4 |
| 20260510022537 | 28 | 84 | 0.0 | 3.2 | 0.00 | 0.00 | 0.00 | 60 | 1008.3 |
| 20260510022037 | 28 | 84 | 1.6 | 3.2 | 0.00 | 0.00 | 0.00 | 59 | 1008.2 |
| 20260510021549 | 28 | 84 | 1.6 | 3.2 | 0.00 | 0.00 | 0.00 | 58 | 1008.1 |
| 20260510021035 | 29 | 84 | 1.6 | 3.2 | 0.00 | 0.00 | 0.00 | 57 | 1008.0 |
| 20260510020538 | 29 | 84 | 1.6 | 3.2 | 0.00 | 0.00 | 0.00 | 56 | 1008.0 |
| 20260510020051 | 30 | 84 | 1.6 | 3.2 | 0.00 | 0.00 | 0.00 | 55 | 1008.0 |
| 20260510015535 | 30 | 84 | 1.6 | 3.2 | 0.00 | 0.00 | 0.00 | 54 | 1007.9 |
| 20260510015036 | 30 | 84 | 0.0 | 3.2 | 0.00 | 0.00 | 0.00 | 53 | 1007.8 |
| 20260510014553 | 30 | 0 | 0.0 | 3.2 | 0.00 | 0.00 | 0.00 | 52 | 1007.7 |
| 20260510014037 | 30 | 0 | 0.0 | 3.2 | 0.00 | 0.00 | 0.00 | 52 | 1007.6 |
| 20260510013538 | 30 | 84 | 1.6 | 6.4 | 0.00 | 0.00 | 0.00 | 51 | 1007.5 |
| 20260510013052 | 31 | 84 | 3.2 | 6.4 | 0.00 | 0.00 | 0.00 | 50 | 1007.5 |
| 20260510012534 | 31 | 109 | 3.2 | 6.4 | 0.00 | 0.00 | 0.00 | 48 | 1007.4 |
| 20260510012034 | 31 | 162 | 1.6 | 6.4 | 0.00 | 0.00 | 0.00 | 47 | 1007.3 |
| 20260510011606 | 31 | 162 | 1.6 | 6.4 | 0.00 | 0.00 | 0.00 | 46 | 1007.3 |
| 20260510011036 | 31 | 161 | 3.2 | 6.4 | 0.00 | 0.00 | 0.00 | 45 | 1007.1 |
| 20260510010536 | 31 | 161 | 1.6 | 8.0 | 0.00 | 0.00 | 0.00 | 45 | 1007.2 |
| 20260510005537 | 31 | 162 | 4.8 | 8.0 | 0.00 | 0.00 | 0.00 | 45 | 1007.2 |
| 20260510005035 | 31 | 171 | 3.2 | 6.4 | 0.00 | 0.00 | 0.00 | 44 | 1007.1 |
| 20260510004559 | 31 | 177 | 3.2 | 6.4 | 0.00 | 0.00 | 0.00 | 44 | 1007.2 |
| 20260510004041 | 32 | 172 | 1.6 | 8.0 | 0.00 | 0.00 | 0.00 | 44 | 1007.1 |
| 20260510003537 | 32 | 209 | 3.2 | 9.7 | 0.00 | 0.00 | 0.00 | 44 | 1007.1 |
| 20260510003045 | 32 | 198 | 3.2 | 9.7 | 0.00 | 0.00 | 0.00 | 44 | 1007.1 |
| 20260510002535 | 32 | 159 | 3.2 | 11.3 | 0.00 | 0.00 | 0.00 | 44 | 1007.1 |
| 20260510002036 | 32 | 195 | 1.6 | 12.9 | 0.00 | 0.00 | 0.00 | 45 | 1007.1 |
| 20260510001552 | 32 | 181 | 6.4 | 12.9 | 0.00 | 0.00 | 0.00 | 44 | 1007.1 |
| 20260510001035 | 32 | 148 | 4.8 | 9.7 | 0.00 | 0.00 | 0.00 | 44 | 1007.1 |
| 20260510000537 | 32 | 173 | 3.2 | 8.0 | 0.00 | 0.00 | 0.00 | 44 | 1007.0 |
| 20260510000049 | 32 | 126 | 1.6 | 8.0 | 0.00 | 0.00 | 0.00 | 43 | 1007.1 |
| 20260509235536 | 32 | 127 | 3.2 | 8.0 | 0.00 | 0.00 | 0.00 | 44 | 1007.1 |
| 20260509235037 | 32 | 155 | 3.2 | 11.3 | 0.00 | 0.00 | 0.00 | 44 | 1007.2 |
| 20260509234546 | 32 | 187 | 3.2 | 11.3 | 0.00 | 0.00 | 0.00 | 44 | 1007.1 |
| 20260509234036 | 32 | 154 | 4.8 | 19.3 | 0.00 | 0.00 | 0.00 | 44 | 1007.0 |
| 20260509233536 | 32 | 103 | 4.8 | 19.3 | 0.00 | 0.00 | 0.00 | 43 | 1007.1 |
| 20260509233050 | 32 | 175 | 4.8 | 11.3 | 0.00 | 0.00 | 0.00 | 44 | 1007.0 |
| 20260509232537 | 33 | 207 | 3.2 | 6.4 | 0.00 | 0.00 | 0.00 | 45 | 1007.0 |
| 20260509232034 | 32 | 220 | 1.6 | 8.0 | 0.00 | 0.00 | 0.00 | 43 | 1007.1 |
| 20260509231550 | 32 | 149 | 0.0 | 11.3 | 0.00 | 0.00 | 0.00 | 43 | 1007.1 |
| 20260509231036 | 32 | 149 | 3.2 | 11.3 | 0.00 | 0.00 | 0.00 | 44 | 1007.1 |
| 20260509230537 | 32 | 144 | 3.2 | 11.3 | 0.00 | 0.00 | 0.00 | 43 | 1007.1 |
| 20260509230054 | 32 | 65 | 4.8 | 11.3 | 0.00 | 0.00 | 0.00 | 42 | 1007.1 |
| 20260509225537 | 33 | 115 | 4.8 | 9.7 | 0.00 | 0.00 | 0.00 | 43 | 1007.2 |
| 20260509225034 | 32 | 240 | 4.8 | 11.3 | 0.00 | 0.00 | 0.00 | 43 | 1007.2 |
| 20260509224551 | 33 | 152 | 3.2 | 11.3 | 0.00 | 0.00 | 0.00 | 42 | 1007.2 |
| 20260509224037 | 33 | 143 | 3.2 | 9.7 | 0.00 | 0.00 | 0.00 | 43 | 1007.2 |
| 20260509223537 | 33 | 174 | 1.6 | 11.3 | 0.00 | 0.00 | 0.00 | 44 | 1007.2 |
| 20260509223047 | 32 | 202 | 3.2 | 11.3 | 0.00 | 0.00 | 0.00 | 45 | 1007.3 |
| 20260509222539 | 32 | 111 | 3.2 | 9.7 | 0.00 | 0.00 | 0.00 | 46 | 1007.3 |
| 20260509222036 | 33 | 85 | 3.2 | 8.0 | 0.00 | 0.00 | 0.00 | 45 | 1007.4 |
| 20260509221549 | 33 | 45 | 0.0 | 12.9 | 0.00 | 0.00 | 0.00 | 45 | 1007.5 |
| 20260509221039 | 33 | 118 | 3.2 | 12.9 | 0.00 | 0.00 | 0.00 | 47 | 1007.5 |
| 20260509220540 | 33 | 90 | 1.6 | 14.5 | 0.00 | 0.00 | 0.00 | 46 | 1007.6 |
| 20260509220052 | 33 | 139 | 4.8 | 14.5 | 0.00 | 0.00 | 0.00 | 46 | 1007.7 |
| 20260509215537 | 33 | 205 | 3.2 | 14.5 | 0.00 | 0.00 | 0.00 | 46 | 1007.7 |
| 20260509215036 | 32 | 232 | 4.8 | 14.5 | 0.00 | 0.00 | 0.00 | 46 | 1007.7 |
| 20260509214547 | 32 | 157 | 3.2 | 12.9 | 0.00 | 0.00 | 0.00 | 47 | 1007.9 |
| 20260509214034 | 32 | 233 | 4.8 | 12.9 | 0.00 | 0.00 | 0.00 | 47 | 1007.9 |
| 20260509213537 | 32 | 222 | 4.8 | 12.9 | 0.00 | 0.00 | 0.00 | 46 | 1008.0 |
| 20260509213101 | 32 | 194 | 4.8 | 14.5 | 0.00 | 0.00 | 0.00 | 47 | 1008.0 |
| 20260509212534 | 32 | 163 | 6.4 | 14.5 | 0.00 | 0.00 | 0.00 | 46 | 1008.1 |
| 20260509212034 | 32 | 190 | 6.4 | 14.5 | 0.00 | 0.00 | 0.00 | 48 | 1008.1 |
| 20260509211609 | 32 | 162 | 6.4 | 14.5 | 0.00 | 0.00 | 0.00 | 47 | 1008.3 |
| 20260509211034 | 32 | 213 | 4.8 | 12.9 | 0.00 | 0.00 | 0.00 | 48 | 1008.3 |
| 20260509210535 | 32 | 199 | 1.6 | 16.1 | 0.00 | 0.00 | 0.00 | 47 | 1008.4 |
| 20260509210056 | 32 | 194 | 4.8 | 19.3 | 0.00 | 0.00 | 0.00 | 48 | 1008.4 |
| 20260509205534 | 32 | 199 | 8.0 | 19.3 | 0.00 | 0.00 | 0.00 | 48 | 1008.5 |
| 20260509205034 | 32 | 160 | 6.4 | 17.7 | 0.00 | 0.00 | 0.00 | 48 | 1008.6 |
| 20260509204559 | 32 | 207 | 3.2 | 11.3 | 0.00 | 0.00 | 0.00 | 49 | 1008.8 |
| 20260509204037 | 32 | 234 | 6.4 | 11.3 | 0.00 | 0.00 | 0.00 | 48 | 1008.8 |
| 20260509203536 | 32 | 247 | 4.8 | 12.9 | 0.00 | 0.00 | 0.00 | 49 | 1009.0 |
| 20260509203055 | 31 | 251 | 6.4 | 17.7 | 0.00 | 0.00 | 0.00 | 50 | 1009.1 |
| 20260509202539 | 31 | 167 | 8.0 | 17.7 | 0.00 | 0.00 | 0.00 | 50 | 1009.1 |
| 20260509202036 | 31 | 196 | 8.0 | 17.7 | 0.00 | 0.00 | 0.00 | 52 | 1009.2 |
| 20260509201547 | 31 | 179 | 4.8 | 14.5 | 0.00 | 0.00 | 0.00 | 52 | 1009.2 |
| 20260509201036 | 31 | 125 | 6.4 | 14.5 | 0.00 | 0.00 | 0.00 | 52 | 1009.3 |
| 20260509200536 | 31 | 0 | 4.8 | 14.5 | 0.00 | 0.00 | 0.00 | 51 | 1009.5 |
| 20260509200046 | 31 | 186 | 6.4 | 14.5 | 0.00 | 0.00 | 0.00 | 52 | 1009.5 |
| 20260509195536 | 31 | 192 | 3.2 | 12.9 | 0.00 | 0.00 | 0.00 | 52 | 1009.6 |
| 20260509195039 | 31 | 221 | 6.4 | 16.1 | 0.00 | 0.00 | 0.00 | 54 | 1009.7 |
| 20260509194547 | 31 | 134 | 6.4 | 16.1 | 0.00 | 0.00 | 0.00 | 52 | 1009.7 |
| 20260509194036 | 31 | 164 | 4.8 | 20.9 | 0.00 | 0.00 | 0.00 | 53 | 1009.9 |
| 20260509193539 | 31 | 173 | 9.7 | 20.9 | 0.00 | 0.00 | 0.00 | 54 | 1009.9 |
| 20260509193051 | 31 | 139 | 4.8 | 16.1 | 0.00 | 0.00 | 0.00 | 57 | 1009.8 |
| 20260509192539 | 30 | 104 | 3.2 | 16.1 | 0.00 | 0.00 | 0.00 | 58 | 1009.9 |
| 20260509192036 | 30 | 182 | 6.4 | 16.1 | 0.00 | 0.00 | 0.00 | 57 | 1010.0 |
| 20260509191547 | 30 | 160 | 8.0 | 17.7 | 0.00 | 0.00 | 0.00 | 58 | 1010.0 |
| 20260509191035 | 30 | 171 | 8.0 | 22.5 | 0.00 | 0.00 | 0.00 | 60 | 1010.1 |
| 20260509190536 | 30 | 188 | 6.4 | 22.5 | 0.00 | 0.00 | 0.00 | 60 | 1010.2 |
| 20260509190052 | 30 | 140 | 8.0 | 16.1 | 0.00 | 0.00 | 0.00 | 58 | 1010.3 |
| 20260509185535 | 30 | 123 | 8.0 | 19.3 | 0.00 | 0.00 | 0.00 | 61 | 1010.2 |
| 20260509185036 | 30 | 212 | 8.0 | 20.9 | 0.00 | 0.00 | 0.00 | 61 | 1010.4 |
| 20260509184548 | 30 | 176 | 9.7 | 20.9 | 0.00 | 0.00 | 0.00 | 62 | 1010.5 |
| 20260509184037 | 30 | 147 | 8.0 | 19.3 | 0.00 | 0.00 | 0.00 | 61 | 1010.6 |
| 20260509183536 | 29 | 196 | 4.8 | 19.3 | 0.00 | 0.00 | 0.00 | 63 | 1010.7 |
| 20260509183052 | 29 | 190 | 8.0 | 17.7 | 0.00 | 0.00 | 0.00 | 66 | 1010.8 |
| 20260509182536 | 29 | 182 | 9.7 | 17.7 | 0.00 | 0.00 | 0.00 | 64 | 1010.9 |
| 20260509182036 | 29 | 198 | 4.8 | 20.9 | 0.00 | 0.00 | 0.00 | 66 | 1011.0 |
| 20260509181604 | 29 | 208 | 6.4 | 20.9 | 0.00 | 0.00 | 0.00 | 67 | 1011.0 |
| 20260509181036 | 28 | 203 | 9.7 | 19.3 | 0.00 | 0.00 | 0.00 | 67 | 1011.0 |